User: anonymous   Login
Location: Goheenville
(40.9070°N, 79.3720°W)
Time: 23:21:45
(UTC-04:00)
Language:

NOAA 11 - Orbit

View from above orbital plane
View from above orbital plane
View from above satellite
View from above satellite

Ground track
Ground track

The orbit data is extracted from the following two-line orbital elements,

1 19531U 88089A   15184.46745018  .00000017  00000-0  30742-4 0  9994
2 19531 098.6450 257.3924 0010101 289.2973 070.7109 14.15156148381662
Epoch (UTC): 03 July 2015 11:13:07
Eccentricity: 0.0010101
inclination: 98.6450°
perigee height: 834 km
apogee height: 849 km
right ascension of ascending node: 257.3924°
argument of perigee: 289.2973°
revolutions per day: 14.15156148
mean anomaly at epoch: 70.7109°
orbit number at epoch: 38166

The dashed part of the orbit path shows where the satellite is in the earth's shadow,  

DLR